Location: Champignolles
(47.0543°N, 4.5663°E)
Time: 20:56:38
(UTC+00:00)

NOAA 12 - Pass Details

Date: 30 November 2020
Orbit: 795 x 815 km, 98.5° (Epoch: 27 January)

Event Time Altitude Azimuth Distance (km) Brightness Sun altitude
Rises 16:36:56 0° 152° (SSE) 3,329 7.3 -7.2°
Reaches altitude 10° 16:39:18 10° 148° (SSE) 2,401 6.5 -7.5°
Maximum altitude 16:44:30 59° 70° (ENE) 942 4.2 -8.3°
Drops below altitude 10° 16:49:44 10° 353° (N) 2,410 6.4 -9.2°
Sets 16:52:06 0° 350° (N) 3,343 7.2 -9.5°
